Home > Weather > Toccoa > Past weeks

Flag for USA Weather for the Past 2 Weeks in Toccoa, Georgia, USA

Now
51 °F

Clear.


Feels Like: 48 °F
Forecast: 51 / 63 °F
Wind: 8 mph from West

Location: Clemson-Oconee County Airport

Current Time: May 5, 2016 at 7:15:01 AM

Latest Report: May 5, 2016 at 5:54 AM


Visibility: 10 mi

Pressure: 29.64 "Hg

Humidity: 66%

Dew Point: 40 °F

Location of ToccoaLocation

Historic Weather in Toccoa — Graph

°F

Toccoa Temperature Yesterday

Maximum temperature yesterday: 73 °F (at 4:54 PM)
Minimum temperature yesterday: 55 °F (at 5:54 AM)
Average temperature yesterday: 64 °F

High & Low Weather Summary for the Past Weeks

 TemperatureHumidityPressure
High89 °F (Apr 29, 3:54 PM)93% (Apr 23, 2:54 AM)30.16 "Hg (Apr 23, 2:54 AM)
Low50 °F (May 5, 4:54 AM)23% (Apr 29, 3:54 PM)29.62 "Hg (May 5, 3:54 AM)
Average71 °F62%29.94 "Hg
* Reported Apr 20 5:54 AM — May 5 5:54 AM, Toccoa, Weather by CustomWeather, © 2016

Note: Actual official high and low records may vary slightly from our data, if they occured in-between our weather recording intervals... More about our weather records

Advertising

Toccoa Weather History for the Previous 24 Hours

Scroll right to see more
 ConditionsComfort  
Time TempWeatherWind HumidityBarometerVisibility
5:54 AM
Thu, May 5
51 °FClear.8 mph66%29.64 "Hg10 mi
4:54 AM50 °FClear.13 mph71%29.63 "Hg10 mi
3:54 AM51 °FClear.15 mph71%29.62 "Hg10 mi
2:54 AM52 °FClear.12 mph69%29.64 "Hg10 mi
1:54 AM54 °FOvercast.9 mph67%29.65 "Hg10 mi
12:54 AM55 °FClear.7 mph67%29.66 "Hg10 mi
11:54 PM
Wed, May 4
55 °FPassing clouds.10 mph72%29.69 "Hg10 mi
10:54 PM59 °FLight rain. Mostly cloudy.13 mph54%29.70 "Hg10 mi
9:54 PM66 °FMostly cloudy.10 mph45%29.67 "Hg10 mi
8:54 PM67 °FOvercast.9 mph39%29.65 "Hg10 mi
7:54 PM67 °FPassing clouds.5 mph37%29.64 "Hg10 mi
6:54 PM72 °FSunny.15 mph30%29.64 "Hg10 mi
5:54 PM72 °FPassing clouds.12 mph29%29.63 "Hg10 mi
4:54 PM73 °FScattered clouds.9 mph30%29.64 "Hg10 mi
3:54 PM72 °FPassing clouds.9 mph33%29.66 "Hg10 mi
2:54 PM72 °FPassing clouds.6 mph31%29.69 "Hg10 mi
1:54 PM71 °FPassing clouds.8 mph30%29.71 "Hg10 mi
12:54 PM70 °FSunny.10 mph31%29.73 "Hg10 mi
11:54 AM69 °FSunny.12 mph32%29.75 "Hg10 mi
10:54 AM66 °FSunny.12 mph34%29.76 "Hg10 mi
9:54 AM65 °FSunny.12 mph40%29.76 "Hg10 mi
8:54 AM63 °FSunny.10 mph52%29.76 "Hg10 mi
7:54 AM58 °FSunny.7 mph67%29.76 "Hg10 mi
Weather by CustomWeather, © 2016

See weather overviewHow to use our weather pages